Location: Keppel Henge
(44.7900°N, 80.9447°W)
Time: 10:07:44
(UTC-04:00)

ISS - Pass Details

Date: 16 October 2017
Orbit: 401 x 408 km, 51.6° (Epoch: 20 October)

Event Time Altitude Azimuth Distance (km) Brightness Sun altitude
Rises 19:16:32 0° 293° (WNW) 2,324 1.2 -7.8°
Reaches altitude 10° 19:18:47 10° 281° (W) 1,462 0.4 -8.2°
Maximum altitude 19:21:37 27° 221° (SW) 816 -1.7 -8.7°
Drops below altitude 10° 19:24:26 10° 162° (SSE) 1,457 -1.2 -9.2°
Sets 19:26:41 0° 149° (SSE) 2,314 -0.3 -9.6°
